Вернуться в каталог

FENGYUN 1C DEB

АктивенPO
NORAD 30253·DEBRIS·🇨🇳 China

Запущен May 10, 1999 с Taiyuan Satellite Launch Center

Loading…

Ближайшие Пролёты (ближайшие 24 часа)

TLE

СвежийSource: Space-Track

Эпоха: Sep 14, 2026, 03:25 UTC

1 30253U 99025XN  26257.14283262  .00001028  00000-0  95405-3 0  9995
2 30253  98.7357 326.8890 0220239  26.3327   3.4861 13.73966754977951

Отслеживайте FENGYUN 1C DEB в реальном времени с AllMySat

Download on the App Store